Time,TemperatureF,DewpointF,PressureIn,WindDirection,WindDirectionDegrees,WindSpeedMPH,WindSpeedGustMPH,Humidity,HourlyPrecipIn,Conditions,Clouds,dailyrainin,SoftwareType,DateUTC
2013-08-10 00:00:00,67.3,61.3,30.00,WNW,291,0.0,0.0,81,0.00,,CLR,0.00,VWS V14.00,2013-08-10 04:00:00,
2013-08-10 00:01:00,67.3,61.3,30.00,WNW,292,0.0,0.0,81,0.00,,CLR,0.00,VWS V14.00,2013-08-10 04:01:00,
2013-08-10 00:06:00,67.1,61.1,30.00,WNW,292,0.0,0.0,81,0.00,,CLR,0.00,VWS V14.00,2013-08-10 04:06:00,
2013-08-10 00:11:00,67.0,61.3,29.99,WNW,292,0.0,0.0,82,0.00,,CLR,0.00,VWS V14.00,2013-08-10 04:11:00,
2013-08-10 00:16:00,66.9,61.2,29.99,WNW,292,0.0,0.0,82,0.00,,CLR,0.00,VWS V14.00,2013-08-10 04:16:00,
2013-08-10 00:21:00,66.8,61.1,29.99,WNW,292,0.0,0.0,82,0.00,,CLR,0.00,VWS V14.00,2013-08-10 04:21:00,
2013-08-10 00:26:00,66.6,61.3,29.99,WNW,291,0.0,0.0,83,0.00,,CLR,0.00,VWS V14.00,2013-08-10 04:26:00,
2013-08-10 00:31:00,66.5,61.2,29.99,WNW,292,0.0,0.0,83,0.00,,CLR,0.00,VWS V14.00,2013-08-10 04:31:00,
2013-08-10 00:36:00,66.3,61.0,30.00,WNW,292,0.0,0.0,83,0.00,,CLR,0.00,VWS V14.00,2013-08-10 04:36:00,
2013-08-10 00:41:00,66.2,61.2,30.00,WNW,291,0.0,0.0,84,0.00,,CLR,0.00,VWS V14.00,2013-08-10 04:41:00,
2013-08-10 00:46:00,66.0,61.0,30.00,WNW,292,0.0,0.0,84,0.00,,CLR,0.00,VWS V14.00,2013-08-10 04:46:00,
2013-08-10 00:51:00,65.9,60.9,30.00,WNW,292,0.0,0.0,84,0.00,,CLR,0.00,VWS V14.00,2013-08-10 04:51:00,
2013-08-10 00:56:00,65.7,61.1,30.00,WNW,292,0.0,0.0,85,0.00,,CLR,0.00,VWS V14.00,2013-08-10 04:56:00,
2013-08-10 01:01:00,65.6,61.0,30.00,WNW,291,0.0,1.0,85,0.00,,CLR,0.00,VWS V14.00,2013-08-10 05:01:00,
2013-08-10 01:06:00,65.5,61.2,30.00,WNW,291,0.0,1.0,86,0.00,,CLR,0.00,VWS V14.00,2013-08-10 05:06:00,
2013-08-10 01:11:00,65.4,61.1,30.00,WNW,291,0.0,0.0,86,0.00,,CLR,0.00,VWS V14.00,2013-08-10 05:11:00,
2013-08-10 01:16:00,65.3,61.0,30.00,WNW,292,0.0,0.0,86,0.00,,CLR,0.00,VWS V14.00,2013-08-10 05:16:00,
2013-08-10 01:21:00,65.1,60.8,30.00,WNW,292,0.0,0.0,86,0.00,,CLR,0.00,VWS V14.00,2013-08-10 05:21:00,
2013-08-10 01:26:00,65.0,60.7,30.00,WNW,291,0.0,0.0,86,0.00,,CLR,0.00,VWS V14.00,2013-08-10 05:26:00,
2013-08-10 01:31:00,64.9,60.9,30.01,WNW,292,0.0,0.0,87,0.00,,CLR,0.00,VWS V14.00,2013-08-10 05:31:00,
2013-08-10 01:36:00,64.7,61.1,30.01,WNW,292,0.0,0.0,88,0.00,,CLR,0.00,VWS V14.00,2013-08-10 05:36:00,
2013-08-10 01:41:00,64.6,60.7,30.01,WNW,291,0.0,0.0,87,0.00,,CLR,0.00,VWS V14.00,2013-08-10 05:41:00,
2013-08-10 01:46:00,64.5,60.5,30.01,WNW,291,0.0,1.0,87,0.00,,CLR,0.00,VWS V14.00,2013-08-10 05:46:00,
2013-08-10 01:51:00,64.6,61.0,30.01,WNW,292,0.0,2.0,88,0.00,,CLR,0.00,VWS V14.00,2013-08-10 05:51:00,
2013-08-10 01:56:00,64.7,60.8,30.01,WNW,292,0.0,2.0,87,0.00,,CLR,0.00,VWS V14.00,2013-08-10 05:56:00,
2013-08-10 02:01:00,64.9,60.9,30.01,WNW,291,0.0,0.0,87,0.00,,CLR,0.00,VWS V14.00,2013-08-10 06:01:00,
2013-08-10 02:06:00,65.1,61.1,30.01,WNW,292,0.0,0.0,87,0.00,,CLR,0.00,VWS V14.00,2013-08-10 06:06:00,
2013-08-10 02:11:00,65.1,60.8,30.01,WNW,292,0.0,0.0,86,0.00,,CLR,0.00,VWS V14.00,2013-08-10 06:11:00,
2013-08-10 02:16:00,65.1,60.8,30.01,WNW,291,0.0,0.0,86,0.00,,CLR,0.00,VWS V14.00,2013-08-10 06:16:00,
2013-08-10 02:21:00,65.0,60.7,30.02,WNW,292,0.0,0.0,86,0.00,,CLR,0.00,VWS V14.00,2013-08-10 06:21:00,
2013-08-10 02:26:00,64.8,60.8,30.01,WNW,292,0.0,0.0,87,0.00,,CLR,0.00,VWS V14.00,2013-08-10 06:26:00,
2013-08-10 02:31:00,64.7,60.8,30.01,WNW,292,0.0,0.0,87,0.00,,CLR,0.00,VWS V14.00,2013-08-10 06:31:00,
2013-08-10 02:36:00,64.5,60.5,30.01,WNW,292,0.0,0.0,87,0.00,,CLR,0.00,VWS V14.00,2013-08-10 06:36:00,
2013-08-10 02:41:00,64.4,60.5,30.02,WNW,291,0.0,0.0,87,0.00,,CLR,0.00,VWS V14.00,2013-08-10 06:41:00,
2013-08-10 02:46:00,64.3,60.7,30.01,WNW,291,0.0,0.0,88,0.00,,CLR,0.00,VWS V14.00,2013-08-10 06:46:00,
2013-08-10 02:51:00,64.2,60.6,30.01,WNW,291,0.0,0.0,88,0.00,,CLR,0.00,VWS V14.00,2013-08-10 06:51:00,
2013-08-10 02:56:00,64.1,60.5,30.02,WNW,292,0.0,0.0,88,0.00,,CLR,0.00,VWS V14.00,2013-08-10 06:56:00,
2013-08-10 03:01:00,63.9,60.3,30.02,WNW,292,0.0,0.0,88,0.00,,FEW060,0.00,VWS V14.00,2013-08-10 07:01:00,
2013-08-10 03:06:00,63.8,60.2,30.01,WNW,292,0.0,0.0,88,0.00,,FEW060,0.00,VWS V14.00,2013-08-10 07:06:00,
2013-08-10 03:11:00,63.8,60.5,30.02,WNW,291,0.0,0.0,89,0.00,,FEW060,0.00,VWS V14.00,2013-08-10 07:11:00,
2013-08-10 03:16:00,63.7,60.4,30.02,WNW,292,0.0,0.0,89,0.00,,FEW060,0.00,VWS V14.00,2013-08-10 07:16:00,
2013-08-10 03:21:00,63.6,60.3,30.02,WNW,291,0.0,0.0,89,0.00,,FEW060,0.00,VWS V14.00,2013-08-10 07:21:00,
2013-08-10 03:26:00,63.5,60.2,30.02,WNW,291,0.0,0.0,89,0.00,,FEW060,0.00,VWS V14.00,2013-08-10 07:26:00,
2013-08-10 03:31:00,63.4,60.1,30.02,WNW,292,0.0,0.0,89,0.00,,FEW060,0.00,VWS V14.00,2013-08-10 07:31:00,
2013-08-10 03:36:00,63.4,60.1,30.02,WNW,292,0.0,0.0,89,0.00,,FEW060,0.00,VWS V14.00,2013-08-10 07:36:00,
2013-08-10 03:41:00,63.3,60.3,30.02,WNW,292,0.0,0.0,90,0.00,,FEW060,0.00,VWS V14.00,2013-08-10 07:41:00,
2013-08-10 03:46:00,63.2,60.2,30.02,WNW,291,0.0,0.0,90,0.00,,FEW060,0.00,VWS V14.00,2013-08-10 07:46:00,
2013-08-10 03:51:00,63.1,59.8,30.02,WNW,291,0.0,0.0,89,0.00,,FEW060,0.00,VWS V14.00,2013-08-10 07:51:00,
2013-08-10 03:56:00,63.1,60.1,30.02,WNW,292,0.0,0.0,90,0.00,,FEW060,0.00,VWS V14.00,2013-08-10 07:56:00,
2013-08-10 04:01:00,62.9,59.9,30.02,WNW,291,0.0,0.0,90,0.00,,SCT070,0.00,VWS V14.00,2013-08-10 08:01:00,
2013-08-10 04:06:00,62.9,59.9,30.03,WNW,291,0.0,0.0,90,0.00,,SCT070,0.00,VWS V14.00,2013-08-10 08:06:00,
2013-08-10 04:11:00,62.8,59.8,30.03,WNW,292,0.0,0.0,90,0.00,,SCT070,0.00,VWS V14.00,2013-08-10 08:11:00,
2013-08-10 04:16:00,62.8,59.8,30.02,WNW,292,0.0,0.0,90,0.00,,SCT070,0.00,VWS V14.00,2013-08-10 08:16:00,
2013-08-10 04:21:00,62.7,59.7,30.03,WNW,292,0.0,0.0,90,0.00,,SCT070,0.00,VWS V14.00,2013-08-10 08:21:00,
2013-08-10 04:26:00,62.7,59.7,30.03,WNW,291,0.0,0.0,90,0.00,,SCT070,0.00,VWS V14.00,2013-08-10 08:26:00,
2013-08-10 04:31:00,62.6,59.9,30.03,WNW,291,0.0,0.0,91,0.00,,SCT070,0.00,VWS V14.00,2013-08-10 08:31:00,
2013-08-10 04:36:00,62.5,59.8,30.03,WNW,292,0.0,0.0,91,0.00,,SCT070,0.00,VWS V14.00,2013-08-10 08:36:00,
2013-08-10 04:41:00,62.4,59.7,30.03,WNW,292,0.0,0.0,91,0.00,,SCT070,0.00,VWS V14.00,2013-08-10 08:41:00,
2013-08-10 04:46:00,62.4,59.7,30.03,WNW,291,0.0,0.0,91,0.00,,SCT070,0.00,VWS V14.00,2013-08-10 08:46:00,
2013-08-10 04:51:00,62.3,59.6,30.03,WNW,292,0.0,0.0,91,0.00,,SCT070,0.00,VWS V14.00,2013-08-10 08:51:00,
2013-08-10 04:56:00,62.2,59.5,30.03,WNW,291,0.0,0.0,91,0.00,,SCT070,0.00,VWS V14.00,2013-08-10 08:56:00,
2013-08-10 05:01:00,62.2,59.5,30.03,WNW,291,0.0,0.0,91,0.00,,BKN075,0.00,VWS V14.00,2013-08-10 09:01:00,
2013-08-10 05:06:00,62.3,59.6,30.03,WNW,291,0.0,0.0,91,0.00,,BKN075,0.00,VWS V14.00,2013-08-10 09:06:00,
2013-08-10 05:11:00,62.2,59.5,30.03,WNW,292,0.0,0.0,91,0.00,,BKN075,0.00,VWS V14.00,2013-08-10 09:11:00,
2013-08-10 05:15:00,62.2,59.5,30.03,WNW,292,0.0,0.0,91,0.00,,BKN075,0.00,VWS V14.00,2013-08-10 09:15:00,
2013-08-10 05:20:00,62.1,59.5,30.03,WNW,292,0.0,0.0,91,0.00,,BKN075,0.00,VWS V14.00,2013-08-10 09:20:00,
2013-08-10 05:25:00,62.5,60.2,30.03,WNW,291,0.0,0.0,92,0.00,,BKN075,0.00,VWS V14.00,2013-08-10 09:25:00,
2013-08-10 05:30:00,62.7,60.3,30.03,WNW,291,0.0,0.0,92,0.00,,BKN075,0.00,VWS V14.00,2013-08-10 09:30:00,
2013-08-10 05:35:00,62.8,60.5,30.03,WNW,292,0.0,0.0,92,0.00,,BKN075,0.00,VWS V14.00,2013-08-10 09:35:00,
2013-08-10 05:40:00,62.9,60.5,30.03,WNW,292,0.0,0.0,92,0.00,,BKN075,0.00,VWS V14.00,2013-08-10 09:40:00,
2013-08-10 05:45:00,63.0,60.6,30.03,WNW,292,0.0,0.0,92,0.00,,BKN075,0.00,VWS V14.00,2013-08-10 09:45:00,
2013-08-10 05:50:00,63.1,60.4,30.03,WNW,292,0.0,0.0,91,0.00,,BKN075,0.00,VWS V14.00,2013-08-10 09:50:00,
2013-08-10 05:55:00,63.1,60.4,30.04,WNW,292,0.0,0.0,91,0.00,,BKN075,0.00,VWS V14.00,2013-08-10 09:55:00,
2013-08-10 06:00:00,63.0,60.3,30.04,WNW,292,0.0,0.0,91,0.00,,OVC090,0.00,VWS V14.00,2013-08-10 10:00:00,
2013-08-10 06:05:00,62.9,60.2,30.04,WNW,291,0.0,0.0,91,0.00,,OVC090,0.00,VWS V14.00,2013-08-10 10:05:00,
2013-08-10 06:10:00,62.9,60.2,30.04,WNW,291,0.0,0.0,91,0.00,,OVC090,0.00,VWS V14.00,2013-08-10 10:10:00,
2013-08-10 06:15:00,63.0,60.3,30.04,WNW,292,0.0,0.0,91,0.00,,OVC090,0.00,VWS V14.00,2013-08-10 10:15:00,
2013-08-10 06:20:00,62.9,60.2,30.05,WNW,292,0.0,0.0,91,0.00,,OVC090,0.00,VWS V14.00,2013-08-10 10:20:00,
2013-08-10 06:25:00,62.9,60.2,30.05,WNW,292,0.0,0.0,91,0.00,,OVC090,0.00,VWS V14.00,2013-08-10 10:25:00,
2013-08-10 06:30:00,62.9,60.2,30.05,WNW,291,0.0,0.0,91,0.00,,OVC090,0.00,VWS V14.00,2013-08-10 10:30:00,
2013-08-10 06:35:00,62.9,60.2,30.05,WNW,291,0.0,0.0,91,0.00,,OVC090,0.00,VWS V14.00,2013-08-10 10:35:00,
2013-08-10 06:40:00,62.9,60.2,30.05,WNW,291,0.0,0.0,91,0.00,,OVC090,0.00,VWS V14.00,2013-08-10 10:40:00,
2013-08-10 06:45:00,62.8,60.1,30.05,WNW,292,0.0,0.0,91,0.00,,OVC090,0.00,VWS V14.00,2013-08-10 10:45:00,
2013-08-10 06:50:00,62.8,60.1,30.05,WNW,292,0.0,0.0,91,0.00,,OVC090,0.00,VWS V14.00,2013-08-10 10:50:00,
2013-08-10 06:55:00,62.9,60.2,30.05,WNW,292,0.0,0.0,91,0.00,,OVC090,0.00,VWS V14.00,2013-08-10 10:55:00,
2013-08-10 07:00:00,63.0,60.3,30.06,WNW,292,0.0,0.0,91,0.00,,OVC095,0.00,VWS V14.00,2013-08-10 11:00:00,
2013-08-10 07:05:00,63.1,60.4,30.06,WNW,292,0.0,0.0,91,0.00,,OVC095,0.00,VWS V14.00,2013-08-10 11:05:00,
2013-08-10 07:10:00,63.2,60.5,30.05,WNW,292,0.0,0.0,91,0.00,,OVC095,0.00,VWS V14.00,2013-08-10 11:10:00,
2013-08-10 07:15:00,63.3,60.6,30.06,WNW,292,0.0,0.0,91,0.00,,OVC095,0.00,VWS V14.00,2013-08-10 11:15:00,
2013-08-10 07:20:00,63.5,60.8,30.06,WNW,291,0.0,0.0,91,0.00,,OVC095,0.00,VWS V14.00,2013-08-10 11:20:00,
2013-08-10 07:25:00,63.6,60.6,30.06,WNW,292,0.0,0.0,90,0.00,,OVC095,0.00,VWS V14.00,2013-08-10 11:25:00,
2013-08-10 07:30:00,63.7,60.7,30.06,WNW,292,0.0,0.0,90,0.00,,OVC095,0.00,VWS V14.00,2013-08-10 11:30:00,
2013-08-10 07:35:00,63.9,60.9,30.06,WNW,291,0.0,0.0,90,0.00,,OVC095,0.00,VWS V14.00,2013-08-10 11:35:00,
2013-08-10 07:40:00,64.1,61.1,30.06,WNW,291,0.0,0.0,90,0.00,,OVC095,0.00,VWS V14.00,2013-08-10 11:40:00,
2013-08-10 07:45:00,64.2,61.2,30.06,WNW,292,0.0,0.0,90,0.00,,OVC095,0.00,VWS V14.00,2013-08-10 11:45:00,
2013-08-10 07:50:00,64.2,60.9,30.07,WNW,292,0.0,0.0,89,0.00,,OVC095,0.00,VWS V14.00,2013-08-10 11:50:00,
2013-08-10 07:55:00,64.3,61.0,30.06,WNW,292,0.0,0.0,89,0.00,,OVC095,0.00,VWS V14.00,2013-08-10 11:55:00,
2013-08-10 08:00:00,64.4,61.1,30.06,WNW,291,0.0,0.0,89,0.00,,OVC046,0.00,VWS V14.00,2013-08-10 12:00:00,
2013-08-10 08:05:00,64.5,61.2,30.06,WNW,292,0.0,0.0,89,0.00,,OVC046,0.00,VWS V14.00,2013-08-10 12:05:00,
2013-08-10 08:10:00,64.6,61.3,30.07,WNW,292,0.0,0.0,89,0.00,,OVC046,0.00,VWS V14.00,2013-08-10 12:10:00,
2013-08-10 08:15:00,64.7,61.4,30.07,WNW,291,0.0,0.0,89,0.00,,OVC046,0.00,VWS V14.00,2013-08-10 12:15:00,
2013-08-10 08:20:00,64.8,61.5,30.07,WNW,291,0.0,0.0,89,0.00,,OVC046,0.00,VWS V14.00,2013-08-10 12:20:00,
2013-08-10 08:25:00,64.9,61.6,30.06,WNW,292,0.0,0.0,89,0.00,,OVC046,0.00,VWS V14.00,2013-08-10 12:25:00,
2013-08-10 08:30:00,65.1,61.8,30.07,NW,317,0.0,2.0,89,0.00,,OVC046,0.00,VWS V14.00,2013-08-10 12:30:00,
2013-08-10 08:35:00,65.4,62.1,30.07,NW,317,0.0,2.0,89,0.00,,OVC046,0.00,VWS V14.00,2013-08-10 12:35:00,
2013-08-10 08:40:00,65.6,62.3,30.07,NW,317,0.0,0.0,89,0.00,,OVC046,0.00,VWS V14.00,2013-08-10 12:40:00,
2013-08-10 08:45:00,65.8,62.2,30.07,NW,317,0.0,0.0,88,0.00,,OVC046,0.00,VWS V14.00,2013-08-10 12:45:00,
2013-08-10 08:50:00,65.9,62.2,30.07,NW,317,0.0,0.0,88,0.00,,OVC046,0.00,VWS V14.00,2013-08-10 12:50:00,
2013-08-10 08:55:00,66.1,62.5,30.07,NW,317,0.0,0.0,88,0.00,,OVC046,0.00,VWS V14.00,2013-08-10 12:55:00,
2013-08-10 09:00:00,66.2,62.2,30.07,NW,317,0.0,0.0,87,0.00,,OVC048,0.00,VWS V14.00,2013-08-10 13:00:00,
2013-08-10 09:05:00,66.5,62.8,30.07,NW,319,2.0,2.0,88,0.00,,OVC048,0.00,VWS V14.00,2013-08-10 13:05:00,
2013-08-10 09:10:00,67.0,63.0,30.07,East,88,0.0,3.0,87,0.00,,OVC048,0.00,VWS V14.00,2013-08-10 13:10:00,
2013-08-10 09:15:00,67.4,63.1,30.07,East,88,0.0,3.0,86,0.00,,OVC048,0.00,VWS V14.00,2013-08-10 13:15:00,
2013-08-10 09:20:00,67.6,62.9,30.07,East,88,0.0,1.0,85,0.00,,OVC048,0.00,VWS V14.00,2013-08-10 13:20:00,
2013-08-10 09:25:00,68.0,63.3,30.07,East,88,0.0,2.0,85,0.00,,OVC048,0.00,VWS V14.00,2013-08-10 13:25:00,
2013-08-10 09:30:00,68.4,63.7,30.07,SE,126,0.0,4.0,85,0.00,,OVC048,0.00,VWS V14.00,2013-08-10 13:30:00,
2013-08-10 09:35:00,68.6,63.2,30.07,SE,126,1.0,4.0,83,0.00,,OVC048,0.00,VWS V14.00,2013-08-10 13:35:00,
2013-08-10 09:40:00,68.8,63.8,30.07,SE,126,0.0,0.0,84,0.00,,OVC048,0.00,VWS V14.00,2013-08-10 13:40:00,
2013-08-10 09:45:00,68.9,63.5,30.07,East,88,0.0,2.0,83,0.00,,OVC048,0.00,VWS V14.00,2013-08-10 13:45:00,
2013-08-10 09:50:00,69.2,63.8,30.07,East,91,2.0,3.0,83,0.00,,OVC048,0.00,VWS V14.00,2013-08-10 13:50:00,
2013-08-10 09:55:00,69.3,63.6,30.07,East,91,0.0,3.0,82,0.00,,OVC048,0.00,VWS V14.00,2013-08-10 13:55:00,
2013-08-10 10:00:00,69.5,64.1,30.07,East,91,0.0,1.0,83,0.00,,OVC060,0.00,VWS V14.00,2013-08-10 14:00:00,
2013-08-10 10:05:00,69.8,63.7,30.07,East,98,0.0,4.0,81,0.00,,OVC060,0.00,VWS V14.00,2013-08-10 14:05:00,
2013-08-10 10:10:00,70.1,64.0,30.07,ESE,123,0.0,1.0,81,0.00,,OVC060,0.00,VWS V14.00,2013-08-10 14:10:00,
2013-08-10 10:15:00,70.4,63.9,30.07,ESE,114,0.0,3.0,80,0.00,,OVC060,0.00,VWS V14.00,2013-08-10 14:15:00,
2013-08-10 10:20:00,70.7,63.9,30.06,NE,47,0.0,4.0,79,0.00,,OVC060,0.00,VWS V14.00,2013-08-10 14:20:00,
2013-08-10 10:25:00,71.1,63.9,30.07,ESE,122,0.0,5.0,78,0.00,,OVC060,0.00,VWS V14.00,2013-08-10 14:25:00,
2013-08-10 10:30:00,71.3,64.5,30.07,ESE,118,0.0,4.0,79,0.00,,OVC060,0.00,VWS V14.00,2013-08-10 14:30:00,
2013-08-10 10:35:00,71.5,64.3,30.07,SE,130,0.0,4.0,78,0.00,,OVC060,0.00,VWS V14.00,2013-08-10 14:35:00,
2013-08-10 10:40:00,71.5,63.9,30.07,ESE,113,0.0,3.0,77,0.00,,OVC060,0.00,VWS V14.00,2013-08-10 14:40:00,
2013-08-10 10:45:00,71.8,64.2,30.08,ESE,113,0.0,3.0,77,0.00,,OVC060,0.00,VWS V14.00,2013-08-10 14:45:00,
2013-08-10 10:50:00,72.4,64.8,30.08,ESE,119,0.0,0.0,77,0.00,,OVC060,0.00,VWS V14.00,2013-08-10 14:50:00,
2013-08-10 10:55:00,73.1,65.1,30.08,East,96,0.0,3.0,76,0.00,,OVC060,0.00,VWS V14.00,2013-08-10 14:55:00,
2013-08-10 11:00:00,73.6,64.4,30.08,ESE,113,1.0,5.0,73,0.00,,OVC075,0.00,VWS V14.00,2013-08-10 15:00:00,
2013-08-10 11:05:00,73.7,64.5,30.09,ESE,111,0.0,5.0,73,0.00,,OVC075,0.00,VWS V14.00,2013-08-10 15:05:00,
2013-08-10 11:10:00,73.7,64.1,30.09,East,82,3.0,5.0,72,0.00,,OVC075,0.00,VWS V14.00,2013-08-10 15:10:00,
2013-08-10 11:15:00,73.7,63.7,30.09,East,84,1.0,5.0,71,0.00,,OVC075,0.00,VWS V14.00,2013-08-10 15:15:00,
2013-08-10 11:20:00,73.9,64.3,30.09,East,89,0.0,0.0,72,0.00,,OVC075,0.00,VWS V14.00,2013-08-10 15:20:00,
2013-08-10 11:25:00,74.0,64.8,30.09,East,100,0.0,3.0,73,0.00,,OVC075,0.00,VWS V14.00,2013-08-10 15:25:00,
2013-08-10 11:30:00,74.3,65.1,30.09,East,100,0.0,1.0,73,0.00,,OVC075,0.00,VWS V14.00,2013-08-10 15:30:00,
2013-08-10 11:35:00,74.2,65.0,30.09,NNE,28,0.0,3.0,73,0.00,,OVC075,0.00,VWS V14.00,2013-08-10 15:35:00,
2013-08-10 11:40:00,74.1,65.3,30.08,ENE,75,2.0,4.0,74,0.00,,OVC075,0.00,VWS V14.00,2013-08-10 15:40:00,
2013-08-10 11:45:00,74.2,65.4,30.09,ENE,74,0.0,4.0,74,0.00,,OVC075,0.00,VWS V14.00,2013-08-10 15:45:00,
2013-08-10 11:50:00,73.9,64.7,30.09,NE,46,0.0,4.0,73,0.00,,OVC075,0.00,VWS V14.00,2013-08-10 15:50:00,
2013-08-10 11:55:00,73.7,65.3,30.09,ENE,72,3.0,4.0,75,0.00,,OVC075,0.00,VWS V14.00,2013-08-10 15:55:00,
2013-08-10 12:00:00,73.6,64.4,30.09,ENE,64,2.0,2.0,73,0.00,,BKN045,0.00,VWS V14.00,2013-08-10 16:00:00,
2013-08-10 12:05:00,73.8,64.6,30.09,ENE,61,0.0,5.0,73,0.00,,BKN045,0.00,VWS V14.00,2013-08-10 16:05:00,
2013-08-10 12:10:00,73.6,64.8,30.09,ESE,102,1.0,4.0,74,0.00,,BKN045,0.00,VWS V14.00,2013-08-10 16:10:00,
2013-08-10 12:15:00,73.9,65.1,30.09,East,83,0.0,4.0,74,0.00,,BKN045,0.00,VWS V14.00,2013-08-10 16:15:00,
2013-08-10 12:20:00,74.2,65.4,30.10,SE,127,0.0,2.0,74,0.00,,BKN045,0.00,VWS V14.00,2013-08-10 16:20:00,
2013-08-10 12:25:00,74.3,65.1,30.09,East,80,0.0,5.0,73,0.00,,BKN045,0.00,VWS V14.00,2013-08-10 16:25:00,
2013-08-10 12:30:00,74.2,64.6,30.09,ENE,67,0.0,5.0,72,0.00,,BKN045,0.00,VWS V14.00,2013-08-10 16:30:00,
2013-08-10 12:35:00,74.4,64.8,30.09,NE,52,0.0,5.0,72,0.00,,BKN045,0.00,VWS V14.00,2013-08-10 16:35:00,
2013-08-10 12:40:00,74.3,64.3,30.09,ENE,73,0.0,4.0,71,0.00,,BKN045,0.00,VWS V14.00,2013-08-10 16:40:00,
2013-08-10 12:45:00,73.6,64.0,30.09,ENE,60,2.0,4.0,72,0.00,,BKN045,0.00,VWS V14.00,2013-08-10 16:45:00,
2013-08-10 12:50:00,73.2,64.0,30.09,NE,53,1.0,2.0,73,0.00,,BKN045,0.00,VWS V14.00,2013-08-10 16:50:00,
2013-08-10 12:55:00,73.0,63.8,30.09,ENE,69,0.0,3.0,73,0.00,,BKN045,0.00,VWS V14.00,2013-08-10 16:55:00,
2013-08-10 13:00:00,72.9,63.8,30.09,ESE,113,0.0,2.0,73,0.00,,OVC041,0.00,VWS V14.00,2013-08-10 17:00:00,
2013-08-10 13:05:00,72.7,63.5,30.09,ESE,110,0.0,2.0,73,0.00,,OVC041,0.00,VWS V14.00,2013-08-10 17:05:00,
2013-08-10 13:10:00,72.4,63.7,30.09,East,79,4.0,5.0,74,0.00,,OVC041,0.00,VWS V14.00,2013-08-10 17:10:00,
2013-08-10 13:15:00,72.2,63.8,30.09,East,94,0.0,5.0,75,0.00,,OVC041,0.00,VWS V14.00,2013-08-10 17:15:00,
2013-08-10 13:20:00,72.3,63.9,30.09,ENE,74,2.0,3.0,75,0.00,,OVC041,0.00,VWS V14.00,2013-08-10 17:20:00,
2013-08-10 13:25:00,72.4,64.0,30.09,East,101,5.0,6.0,75,0.00,,OVC041,0.00,VWS V14.00,2013-08-10 17:25:00,
2013-08-10 13:30:00,72.6,63.8,30.09,East,98,0.0,5.0,74,0.00,,OVC041,0.00,VWS V14.00,2013-08-10 17:30:00,
2013-08-10 13:35:00,72.8,64.0,30.09,NE,36,0.0,5.0,74,0.00,,OVC041,0.00,VWS V14.00,2013-08-10 17:35:00,
2013-08-10 13:40:00,72.9,64.1,30.09,NE,36,0.0,0.0,74,0.00,,OVC041,0.00,VWS V14.00,2013-08-10 17:40:00,
2013-08-10 13:45:00,73.0,64.2,30.09,ESE,105,0.0,3.0,74,0.00,,OVC041,0.00,VWS V14.00,2013-08-10 17:45:00,
2013-08-10 13:50:00,73.0,64.2,30.09,ESE,103,0.0,0.0,74,0.00,,OVC041,0.00,VWS V14.00,2013-08-10 17:50:00,
2013-08-10 13:55:00,73.0,64.2,30.08,ENE,63,0.0,5.0,74,0.00,,OVC041,0.00,VWS V14.00,2013-08-10 17:55:00,
2013-08-10 14:00:00,73.0,64.2,30.08,East,82,0.0,5.0,74,0.00,,OVC060,0.00,VWS V14.00,2013-08-10 18:00:00,
2013-08-10 14:05:00,73.1,64.3,30.08,ESE,121,5.0,6.0,74,0.00,,OVC060,0.00,VWS V14.00,2013-08-10 18:05:00,
2013-08-10 14:10:00,73.4,64.2,30.08,SE,134,0.0,4.0,73,0.00,,OVC060,0.00,VWS V14.00,2013-08-10 18:10:00,
2013-08-10 14:15:00,73.6,64.4,30.08,SSE,152,4.0,4.0,73,0.00,,OVC060,0.00,VWS V14.00,2013-08-10 18:15:00,
2013-08-10 14:20:00,73.6,64.4,30.08,East,95,2.0,3.0,73,0.00,,OVC060,0.00,VWS V14.00,2013-08-10 18:20:00,
2013-08-10 14:25:00,73.8,64.6,30.08,East,86,1.0,4.0,73,0.00,,OVC060,0.00,VWS V14.00,2013-08-10 18:25:00,
2013-08-10 14:30:00,73.9,65.1,30.08,ENE,59,1.0,5.0,74,0.00,,OVC060,0.00,VWS V14.00,2013-08-10 18:30:00,
2013-08-10 14:35:00,73.9,64.3,30.08,ENE,75,0.0,5.0,72,0.00,,OVC060,0.00,VWS V14.00,2013-08-10 18:35:00,
2013-08-10 14:40:00,74.0,65.2,30.08,East,86,0.0,3.0,74,0.00,,OVC060,0.00,VWS V14.00,2013-08-10 18:40:00,
2013-08-10 14:45:00,74.3,65.1,30.07,East,86,0.0,5.0,73,0.00,,OVC060,0.00,VWS V14.00,2013-08-10 18:45:00,
2013-08-10 14:50:00,74.6,65.4,30.07,SSE,159,1.0,4.0,73,0.00,,OVC060,0.00,VWS V14.00,2013-08-10 18:50:00,
2013-08-10 14:55:00,74.7,65.5,30.08,NE,55,0.0,6.0,73,0.00,,OVC060,0.00,VWS V14.00,2013-08-10 18:55:00,
2013-08-10 15:00:00,75.4,66.2,30.07,East,99,1.0,5.0,73,0.00,,BKN055,0.00,VWS V14.00,2013-08-10 19:00:00,
2013-08-10 15:05:00,75.9,65.8,30.06,ESE,111,0.0,6.0,71,0.00,,BKN055,0.00,VWS V14.00,2013-08-10 19:05:00,
2013-08-10 15:10:00,76.3,66.2,30.07,ENE,74,0.0,5.0,71,0.00,,BKN055,0.00,VWS V14.00,2013-08-10 19:10:00,
2013-08-10 15:15:00,76.5,66.8,30.07,East,96,0.0,6.0,72,0.00,,BKN055,0.00,VWS V14.00,2013-08-10 19:15:00,
2013-08-10 15:20:00,76.8,66.3,30.07,ESE,106,4.0,4.0,70,0.00,,BKN055,0.00,VWS V14.00,2013-08-10 19:20:00,
2013-08-10 15:25:00,77.0,66.1,30.07,East,85,0.0,6.0,69,0.00,,BKN055,0.00,VWS V14.00,2013-08-10 19:25:00,
2013-08-10 15:30:00,77.0,65.6,30.07,East,87,0.0,1.0,68,0.00,,BKN055,0.00,VWS V14.00,2013-08-10 19:30:00,
2013-08-10 15:35:00,76.7,65.8,30.07,ENE,60,0.0,6.0,69,0.00,,BKN055,0.00,VWS V14.00,2013-08-10 19:35:00,
2013-08-10 15:40:00,76.2,64.4,30.07,NE,34,3.0,3.0,67,0.00,,BKN055,0.00,VWS V14.00,2013-08-10 19:40:00,
2013-08-10 15:45:00,76.0,65.1,30.07,ENE,64,0.0,4.0,69,0.00,,BKN055,0.00,VWS V14.00,2013-08-10 19:45:00,
2013-08-10 15:50:00,76.1,65.2,30.07,ENE,78,0.0,1.0,69,0.00,,BKN055,0.00,VWS V14.00,2013-08-10 19:50:00,
2013-08-10 15:55:00,76.6,65.7,30.07,ENE,62,2.0,4.0,69,0.00,,BKN055,0.00,VWS V14.00,2013-08-10 19:55:00,
2013-08-10 16:00:00,76.8,64.6,30.06,NE,46,0.0,3.0,66,0.00,,BKN085,0.00,VWS V14.00,2013-08-10 20:00:00,
2013-08-10 16:05:00,77.0,65.6,30.06,ENE,62,0.0,4.0,68,0.00,,BKN085,0.00,VWS V14.00,2013-08-10 20:05:00,
2013-08-10 16:10:00,77.1,64.9,30.06,East,81,0.0,1.0,66,0.00,,BKN085,0.00,VWS V14.00,2013-08-10 20:10:00,
2013-08-10 16:15:00,77.5,65.3,30.06,ESE,105,0.0,3.0,66,0.00,,BKN085,0.00,VWS V14.00,2013-08-10 20:15:00,
2013-08-10 16:20:00,77.3,65.5,30.06,East,101,0.0,6.0,67,0.00,,BKN085,0.00,VWS V14.00,2013-08-10 20:20:00,
2013-08-10 16:25:00,76.8,64.6,30.06,SE,142,0.0,6.0,66,0.00,,BKN085,0.00,VWS V14.00,2013-08-10 20:25:00,
2013-08-10 16:30:00,76.4,64.6,30.06,SE,144,0.0,4.0,67,0.00,,BKN085,0.00,VWS V14.00,2013-08-10 20:30:00,
2013-08-10 16:35:00,76.6,65.3,30.06,East,92,0.0,4.0,68,0.00,,BKN085,0.00,VWS V14.00,2013-08-10 20:35:00,
2013-08-10 16:40:00,76.9,64.7,30.06,ESE,103,0.0,4.0,66,0.00,,BKN085,0.00,VWS V14.00,2013-08-10 20:40:00,
2013-08-10 16:45:00,76.4,64.2,30.06,ESE,104,0.0,6.0,66,0.00,,BKN085,0.00,VWS V14.00,2013-08-10 20:45:00,
2013-08-10 16:50:00,75.8,64.1,30.06,ESE,104,0.0,1.0,67,0.00,,BKN085,0.00,VWS V14.00,2013-08-10 20:50:00,
2013-08-10 16:55:00,75.4,64.1,30.06,SSE,164,0.0,5.0,68,0.00,,BKN085,0.00,VWS V14.00,2013-08-10 20:55:00,
2013-08-10 17:00:00,75.3,64.8,30.06,East,82,0.0,4.0,70,0.00,,FEW038,0.00,VWS V14.00,2013-08-10 21:00:00,
2013-08-10 17:05:00,75.4,64.1,30.06,ESE,112,0.0,4.0,68,0.00,,FEW038,0.00,VWS V14.00,2013-08-10 21:05:00,
2013-08-10 17:10:00,75.4,64.5,30.05,NE,51,3.0,3.0,69,0.00,,FEW038,0.00,VWS V14.00,2013-08-10 21:10:00,
2013-08-10 17:15:00,75.4,64.1,30.05,East,99,0.0,3.0,68,0.00,,FEW038,0.00,VWS V14.00,2013-08-10 21:15:00,
2013-08-10 17:20:00,75.3,64.0,30.05,SE,129,0.0,4.0,68,0.00,,FEW038,0.00,VWS V14.00,2013-08-10 21:20:00,
2013-08-10 17:25:00,75.7,65.6,30.05,ENE,61,0.0,4.0,71,0.00,,FEW038,0.00,VWS V14.00,2013-08-10 21:25:00,
2013-08-10 17:30:00,76.0,63.8,30.05,East,90,0.0,1.0,66,0.00,,FEW038,0.00,VWS V14.00,2013-08-10 21:30:00,
2013-08-10 17:35:00,76.2,64.0,30.05,ENE,71,0.0,4.0,66,0.00,,FEW038,0.00,VWS V14.00,2013-08-10 21:35:00,
2013-08-10 17:40:00,76.2,64.4,30.06,ENE,71,0.0,3.0,67,0.00,,FEW038,0.00,VWS V14.00,2013-08-10 21:40:00,
2013-08-10 17:45:00,76.2,64.9,30.05,ENE,71,0.0,3.0,68,0.00,,FEW038,0.00,VWS V14.00,2013-08-10 21:45:00,
2013-08-10 17:50:00,76.5,64.3,30.05,ENE,71,0.0,2.0,66,0.00,,FEW038,0.00,VWS V14.00,2013-08-10 21:50:00,
2013-08-10 17:55:00,76.2,64.0,30.05,ESE,117,0.0,6.0,66,0.00,,FEW038,0.00,VWS V14.00,2013-08-10 21:55:00,
2013-08-10 18:00:00,76.2,64.9,30.05,East,81,0.0,3.0,68,0.00,,OVC075,0.00,VWS V14.00,2013-08-10 22:00:00,
2013-08-10 18:05:00,76.2,64.4,30.05,ESE,106,0.0,5.0,67,0.00,,OVC075,0.00,VWS V14.00,2013-08-10 22:05:00,
2013-08-10 18:10:00,76.3,64.1,30.05,NNE,30,0.0,3.0,66,0.00,,OVC075,0.00,VWS V14.00,2013-08-10 22:10:00,
2013-08-10 18:15:00,76.2,64.9,30.05,ENE,70,0.0,3.0,68,0.00,,OVC075,0.00,VWS V14.00,2013-08-10 22:15:00,
2013-08-10 18:20:00,76.0,63.8,30.05,SE,128,1.0,3.0,66,0.00,,OVC075,0.00,VWS V14.00,2013-08-10 22:20:00,
2013-08-10 18:25:00,75.8,64.1,30.05,East,79,2.0,3.0,67,0.00,,OVC075,0.00,VWS V14.00,2013-08-10 22:25:00,
2013-08-10 18:30:00,75.8,63.6,30.05,SE,125,0.0,4.0,66,0.00,,OVC075,0.00,VWS V14.00,2013-08-10 22:30:00,
2013-08-10 18:35:00,75.7,63.5,30.05,ESE,119,3.0,4.0,66,0.00,,OVC075,0.00,VWS V14.00,2013-08-10 22:35:00,
2013-08-10 18:40:00,75.5,62.5,30.05,ENE,64,0.0,3.0,64,0.00,,OVC075,0.00,VWS V14.00,2013-08-10 22:40:00,
2013-08-10 18:45:00,75.4,63.3,30.05,ENE,68,0.0,4.0,66,0.00,,OVC075,0.00,VWS V14.00,2013-08-10 22:45:00,
2013-08-10 18:50:00,75.5,62.9,30.05,ENE,68,0.0,0.0,65,0.00,,OVC075,0.00,VWS V14.00,2013-08-10 22:50:00,
2013-08-10 18:55:00,75.5,63.4,30.05,ENE,69,0.0,1.0,66,0.00,,OVC075,0.00,VWS V14.00,2013-08-10 22:55:00,
2013-08-10 19:00:00,75.4,63.3,30.05,ENE,68,0.0,0.0,66,0.00,,BKN080,0.00,VWS V14.00,2013-08-10 23:00:00,
2013-08-10 19:05:00,75.4,63.7,30.05,East,98,1.0,1.0,67,0.00,,BKN080,0.00,VWS V14.00,2013-08-10 23:05:00,
2013-08-10 19:10:00,75.2,63.1,30.05,East,86,0.0,0.0,66,0.00,,BKN080,0.00,VWS V14.00,2013-08-10 23:10:00,
2013-08-10 19:15:00,74.9,61.9,30.05,SE,133,0.0,1.0,64,0.00,,BKN080,0.00,VWS V14.00,2013-08-10 23:15:00,
2013-08-10 19:20:00,74.6,62.1,30.06,SE,126,0.0,0.0,65,0.00,,BKN080,0.00,VWS V14.00,2013-08-10 23:20:00,
2013-08-10 19:25:00,74.3,62.2,30.05,SE,125,0.0,0.0,66,0.00,,BKN080,0.00,VWS V14.00,2013-08-10 23:25:00,
2013-08-10 19:30:00,74.1,62.0,30.05,ENE,63,0.0,3.0,66,0.00,,BKN080,0.00,VWS V14.00,2013-08-10 23:30:00,
2013-08-10 19:35:00,73.8,62.2,30.05,ENE,63,0.0,3.0,67,0.00,,BKN080,0.00,VWS V14.00,2013-08-10 23:35:00,
2013-08-10 19:40:00,73.4,61.8,30.05,East,99,2.0,4.0,67,0.00,,BKN080,0.00,VWS V14.00,2013-08-10 23:40:00,
2013-08-10 19:45:00,73.0,61.4,30.05,East,98,0.0,4.0,67,0.00,,BKN080,0.00,VWS V14.00,2013-08-10 23:45:00,
2013-08-10 19:50:00,72.5,61.3,30.05,ESE,113,2.0,2.0,68,0.00,,BKN080,0.00,VWS V14.00,2013-08-10 23:50:00,
2013-08-10 19:55:00,72.1,61.4,30.05,ENE,75,0.0,3.0,69,0.00,,BKN080,0.00,VWS V14.00,2013-08-10 23:55:00,
2013-08-10 20:00:00,71.7,61.8,30.05,ENE,75,0.0,1.0,71,0.00,,CLR,0.00,VWS V14.00,2013-08-11 00:00:00,
2013-08-10 20:05:00,71.3,61.4,30.06,ENE,75,0.0,1.0,71,0.00,,CLR,0.00,VWS V14.00,2013-08-11 00:05:00,
2013-08-10 20:10:00,71.1,62.0,30.06,ENE,75,0.0,0.0,73,0.00,,CLR,0.00,VWS V14.00,2013-08-11 00:10:00,
2013-08-10 20:15:00,70.7,62.0,30.05,ENE,75,0.0,0.0,74,0.00,,CLR,0.00,VWS V14.00,2013-08-11 00:15:00,
2013-08-10 20:20:00,70.4,61.7,30.05,ENE,75,0.0,2.0,74,0.00,,CLR,0.00,VWS V14.00,2013-08-11 00:20:00,
2013-08-10 20:25:00,70.0,61.7,30.06,ENE,75,0.0,2.0,75,0.00,,CLR,0.00,VWS V14.00,2013-08-11 00:25:00,
2013-08-10 20:30:00,69.7,61.8,30.05,ENE,75,0.0,0.0,76,0.00,,CLR,0.00,VWS V14.00,2013-08-11 00:30:00,
2013-08-10 20:35:00,69.3,61.8,30.06,ENE,75,0.0,0.0,77,0.00,,CLR,0.00,VWS V14.00,2013-08-11 00:35:00,
2013-08-10 20:40:00,68.9,61.4,30.05,ENE,75,0.0,0.0,77,0.00,,CLR,0.00,VWS V14.00,2013-08-11 00:40:00,
2013-08-10 20:45:00,68.5,61.4,30.06,ENE,75,0.0,0.0,78,0.00,,CLR,0.00,VWS V14.00,2013-08-11 00:45:00,
2013-08-10 20:50:00,68.1,61.0,30.06,ENE,75,0.0,0.0,78,0.00,,CLR,0.00,VWS V14.00,2013-08-11 00:50:00,
2013-08-10 20:55:00,67.7,61.0,30.06,ENE,75,0.0,0.0,79,0.00,,CLR,0.00,VWS V14.00,2013-08-11 00:55:00,
2013-08-10 21:00:00,67.4,60.7,30.06,ENE,75,0.0,0.0,79,0.00,,CLR,0.00,VWS V14.00,2013-08-11 01:00:00,
2013-08-10 21:05:00,67.0,60.6,30.06,ENE,75,0.0,0.0,80,0.00,,CLR,0.00,VWS V14.00,2013-08-11 01:05:00,
2013-08-10 21:10:00,66.8,60.8,30.06,ENE,75,0.0,0.0,81,0.00,,CLR,0.00,VWS V14.00,2013-08-11 01:10:00,
2013-08-10 21:15:00,66.5,60.5,30.06,ENE,75,0.0,0.0,81,0.00,,CLR,0.00,VWS V14.00,2013-08-11 01:15:00,
2013-08-10 21:20:00,66.2,60.5,30.07,ENE,75,0.0,0.0,82,0.00,,CLR,0.00,VWS V14.00,2013-08-11 01:20:00,
2013-08-10 21:25:00,66.0,60.7,30.06,ENE,75,0.0,0.0,83,0.00,,CLR,0.00,VWS V14.00,2013-08-11 01:25:00,
2013-08-10 21:30:00,65.8,60.5,30.07,ENE,75,0.0,0.0,83,0.00,,CLR,0.00,VWS V14.00,2013-08-11 01:30:00,
2013-08-10 21:35:00,65.6,60.3,30.07,ENE,75,0.0,0.0,83,0.00,,CLR,0.00,VWS V14.00,2013-08-11 01:35:00,
2013-08-10 21:40:00,65.4,60.5,30.07,ENE,75,0.0,0.0,84,0.00,,CLR,0.00,VWS V14.00,2013-08-11 01:40:00,
2013-08-10 21:45:00,65.2,60.6,30.07,ENE,75,0.0,0.0,85,0.00,,CLR,0.00,VWS V14.00,2013-08-11 01:45:00,
2013-08-10 21:50:00,65.0,60.4,30.07,ENE,75,0.0,0.0,85,0.00,,CLR,0.00,VWS V14.00,2013-08-11 01:50:00,
2013-08-10 21:55:00,64.8,60.2,30.08,ENE,75,0.0,0.0,85,0.00,,CLR,0.00,VWS V14.00,2013-08-11 01:55:00,
2013-08-10 22:00:00,64.7,60.4,30.08,ENE,75,0.0,0.0,86,0.00,,CLR,0.00,VWS V14.00,2013-08-11 02:00:00,
2013-08-10 22:05:00,64.5,60.2,30.08,ENE,75,0.0,0.0,86,0.00,,CLR,0.00,VWS V14.00,2013-08-11 02:05:00,
2013-08-10 22:10:00,64.3,60.0,30.08,ENE,75,0.0,0.0,86,0.00,,CLR,0.00,VWS V14.00,2013-08-11 02:10:00,
2013-08-10 22:15:00,64.1,60.2,30.08,ENE,75,0.0,0.0,87,0.00,,CLR,0.00,VWS V14.00,2013-08-11 02:15:00,
2013-08-10 22:20:00,64.0,60.1,30.08,ENE,75,0.0,0.0,87,0.00,,CLR,0.00,VWS V14.00,2013-08-11 02:20:00,
2013-08-10 22:25:00,63.9,60.0,30.08,ENE,75,0.0,0.0,87,0.00,,CLR,0.00,VWS V14.00,2013-08-11 02:25:00,
2013-08-10 22:30:00,63.8,59.9,30.08,ENE,75,0.0,0.0,87,0.00,,CLR,0.00,VWS V14.00,2013-08-11 02:30:00,
2013-08-10 22:35:00,63.7,59.8,30.08,ENE,75,0.0,0.0,87,0.00,,CLR,0.00,VWS V14.00,2013-08-11 02:35:00,
2013-08-10 22:40:00,63.5,59.9,30.08,ENE,75,0.0,0.0,88,0.00,,CLR,0.00,VWS V14.00,2013-08-11 02:40:00,
2013-08-10 22:45:00,63.4,59.8,30.08,ENE,75,0.0,0.0,88,0.00,,CLR,0.00,VWS V14.00,2013-08-11 02:45:00,
2013-08-10 22:50:00,63.2,59.6,30.08,ENE,75,0.0,0.0,88,0.00,,CLR,0.00,VWS V14.00,2013-08-11 02:50:00,